Lapse_Rate
7.4 7.2 7.3 7.1 6.8 6.7 7.1 7.1 6.8 6.7 7.0 7.0 6.7 6.6 6.5 6.6 7.0 9.0 9.1 9.5 8.4 7.5 7.7 8.2 8.1 7.3 7.3 7.1 6.5 6.8 6.8 6.9 6.5 6.5 6.5 6.5 6.5 6.5 6.5 6.5 6.5 6.5 6.5 6.5 6.5 6.5 6.5 6.8 6.7 6.5 6.5 7.0 6.9 7.1
7.0 6.9 6.9 6.9 7.1 7.0 6.8 6.6 6.8 6.7 6.8 6.9 7.0 6.9 6.7 6.7 7.1 7.8 8.7 9.3 9.8 7.8 7.9 9.0 8.9 9.0 8.7 8.4 7.5 7.0 6.8 6.8 6.7 6.5 6.5 6.5 6.5 6.5 6.5 6.5 6.5 6.5 6.5 6.5 6.5 6.5 6.4 6.9 6.8 7.4 7.6 7.2 7.1 7.1
7.1 7.1 7.0 7.0 7.0 7.0 7.0 7.0 7.0 7.1 7.2 7.4 7.4 7.4 7.2 7.1 7.3 7.4 9.0 9.5 9.1 7.8 7.9 8.2 8.0 9.0 9.5 9.2 9.3 6.9 7.5 7.8 7.3 7.6 6.6 6.5 6.5 6.5 6.5 6.5 6.5 6.5 6.6 6.5 6.5 6.5 6.5 6.9 6.6 7.5 7.7 7.6 7.6 7.3
6.8 6.9 6.9 6.9 6.8 6.9 6.9 7.0 7.0 6.9 7.1 7.2 7.2 7.2 7.2 7.1 7.3 6.8 9.0 9.6 8.9 8.1 6.7 7.2 9.3 8.6 9.5 9.4 9.1 8.9 8.4 8.4 8.1 7.6 6.8 6.5 6.5 6.8 6.5 6.5 6.5 6.5 6.5 6.5 6.5 6.5 6.7 7.0 7.1 6.6 7.6 7.8 7.7 7.8
7.1 7.0 7.0 6.9 6.9 6.9 7.0 7.0 7.1 7.2 7.3 7.4 7.3 7.3 7.3 7.5 7.6 8.8 8.7 9.5 9.1 7.9 6.7 7.1 8.5 9.0 9.3 9.1 8.8 8.8 8.4 7.9 7.5 6.8 6.6 6.5 6.7 6.6 6.5 6.5 6.5 6.7 6.5 6.5 6.5 6.7 6.6 6.8 7.5 7.7 7.5 7.6 7.8 7.7
7.0 7.0 7.0 7.1 7.1 7.1 7.2 7.3 7.4 7.5 7.5 7.5 7.5 7.5 7.5 7.4 7.6 9.2 5.7 9.4 9.7 9.2 7.5 6.5 8.3 8.2 8.7 8.8 8.5 8.3 8.3 8.1 7.9 7.2 6.7 7.2 7.7 6.7 6.5 6.5 6.4 7.2 7.5 7.3 6.6 7.5 7.5 7.5 7.8 8.0 7.8 7.8 8.0 8.0
7.2 7.2 7.1 7.1 7.1 7.2 7.3 7.3 7.3 7.4 7.4 7.4 7.3 7.2 7.4 7.3 7.8 7.8 7.8 8.4 8.0 9.5 7.6 6.6 6.5 8.0 8.6 8.4 8.3 8.1 8.3 8.0 8.0 7.2 6.8 7.1 7.1 6.9 6.5 6.5 6.5 7.3 7.8 7.7 7.9 7.7 6.9 7.2 6.9 7.9 8.0 8.1 8.2 8.2
7.1 7.1 7.1 7.1 7.2 7.2 7.2 7.2 7.3 7.2 7.1 7.0 6.9 6.9 6.8 7.0 7.3 7.8 9.3 7.9 8.3 8.7 8.1 6.5 6.5 6.9 8.4 7.2 6.8 8.2 7.0 7.5 7.4 7.1 7.2 6.5 7.0 6.6 6.5 6.5 7.2 7.5 7.6 7.5 7.6 8.0 7.8 7.9 8.0 7.9 8.2 8.1 7.9 7.9
7.1 7.0 6.9 7.0 7.1 7.1 7.2 7.3 7.3 7.4 7.4 7.4 7.3 7.3 8.6 8.6 7.6 7.7 6.7 7.0 9.6 8.3 6.8 6.7 6.5 6.5 7.9 7.3 7.4 7.2 7.5 6.5 7.4 6.5 6.5 6.8 6.5 6.5 6.5 6.7 7.0 7.4 7.3 7.4 7.7 7.6 7.7 7.5 7.6 7.8 7.9 8.0 7.8 7.9
7.1 7.1 7.0 7.1 7.2 7.4 7.4 7.5 7.6 7.5 7.3 7.0 7.8 7.7 6.8 8.5 6.6 6.9 8.4 6.9 6.8 7.7 7.8 6.5 7.4 6.5 7.4 7.1 6.6 6.6 6.9 6.5 6.5 6.5 7.1 6.5 6.5 6.9 7.2 7.5 7.6 7.7 7.8 7.8 6.8 6.9 7.2 7.1 7.2 7.7 7.8 8.0 8.3 8.4
7.0 7.0 7.0 7.1 7.1 7.2 7.3 7.3 7.3 7.2 6.2 8.8 7.2 7.6 8.9 6.7 8.8 7.9 6.9 6.7 7.0 6.5 7.2 7.2 7.3 6.6 7.9 6.5 6.5 7.0 6.5 6.5 6.5 6.5 6.5 6.5 6.5 6.5 7.5 7.5 7.8 7.8 7.9 7.7 7.8 7.8 8.1 7.9 7.8 7.7 7.8 8.1 8.1 8.2
7.1 7.0 7.0 7.1 7.2 7.2 7.2 7.3 7.3 8.0 7.5 8.1 8.6 8.7 9.2 8.1 7.4 6.6 6.5 6.6 6.5 6.5 7.0 6.6 6.9 7.3 7.2 7.6 6.6 6.7 6.5 6.5 6.5 6.6 6.5 6.5 6.5 7.1 6.8 5.6 7.4 7.9 8.0 7.8 8.0 8.0 8.0 8.1 8.2 7.9 7.4 7.2 6.7 5.9
7.2 7.2 7.2 7.2 7.2 7.3 7.3 7.3 7.2 7.4 7.5 8.9 8.3 7.3 7.3 7.1 6.5 6.5 6.5 6.5 6.5 6.7 7.2 7.1 6.6 7.2 7.3 7.5 6.7 6.5 6.5 6.5 6.5 6.5 6.5 6.5 6.7 6.0 7.2 7.7 7.7 8.1 8.2 8.0 8.1 8.2 8.2 7.8 7.4 7.2 6.7 6.3 6.1 6.0
7.0 7.1 7.2 7.2 7.3 7.3 7.4 7.4 7.3 7.9 8.2 7.6 7.0 6.5 6.5 6.5 6.5 6.5 6.5 6.5 7.0 7.1 7.1 7.0 7.1 6.7 7.1 6.5 6.5 6.5 6.5 6.5 6.5 6.5 6.5 6.5 6.8 7.3 7.7 7.8 7.6 7.3 7.3 7.6 7.7 7.6 7.5 7.1 7.2 6.6 6.0 5.8 5.6 5.4
7.1 7.1 7.3 7.4 7.3 7.4 7.4 7.4 7.4 9.2 8.2 7.2 7.2 6.5 6.5 6.9 7.1 7.1 7.4 7.2 7.5 7.7 7.3 6.8 6.9 6.9 6.5 6.5 6.5 6.5 6.5 6.5 6.5 6.5 6.5 6.5 7.3 7.5 7.5 7.6 7.5 7.4 7.1 7.1 7.4 6.8 7.0 6.9 6.8 6.6 6.0 5.3 5.1 5.1
7.1 6.8 8.0 7.8 7.3 7.4 7.5 7.5 8.0 7.8 7.1 7.6 7.2 6.6 7.0 6.6 6.5 6.8 6.9 7.0 7.8 7.6 7.6 7.2 6.5 6.5 6.5 6.5 6.5 6.5 6.5 6.5 6.5 6.5 6.8 7.4 7.4 7.5 7.5 7.0 7.0 7.1 7.0 7.0 7.3 7.0 6.6 6.5 6.6 6.5 5.9 5.4 5.2 5.4
6.9 9.2 8.4 7.4 7.1 7.4 7.5 7.7 6.7 6.6 7.3 7.1 6.7 7.5 7.3 7.2 6.8 7.0 7.4 7.4 8.1 7.2 6.5 6.5 6.5 6.5 6.5 6.5 6.5 6.5 6.5 6.5 6.9 7.0 7.3 7.0 7.5 7.4 6.7 7.0 7.2 7.0 7.1 7.2 7.1 6.8 6.6 6.7 6.4 6.2 6.5 5.6 5.4 5.3
8.5 9.3 7.9 7.5 7.6 7.6 8.6 7.8 6.8 6.9 6.6 7.3 6.7 6.7 7.3 7.3 7.0 7.1 7.6 7.7 7.1 7.2 7.0 6.6 7.1 6.5 6.5 6.5 6.5 6.5 6.9 6.6 6.2 7.0 7.4 7.0 6.8 5.9 6.6 7.1 6.9 7.2 7.1 7.0 6.9 6.9 7.0 7.1 7.4 7.0 6.6 6.3 5.9 5.6
9.2 8.9 7.7 7.8 7.6 5.6 6.1 6.6 6.7 7.1 7.1 7.4 7.5 7.6 7.7 7.2 7.3 7.6 7.7 7.0 7.5 6.8 6.9 6.9 6.5 6.5 6.5 6.6 6.6 6.9 7.2 7.4 7.2 6.8 7.4 5.5 5.6 5.8 6.7 7.0 7.2 7.1 7.0 6.9 6.9 7.4 7.4 6.9 7.2 7.3 7.1 6.9 6.8 6.9
7.5 7.0 7.0 7.0 6.6 6.5 6.6 6.9 6.5 7.3 6.7 7.2 7.5 7.4 7.5 7.2 7.2 6.4 6.5 6.6 6.8 6.7 6.7 6.5 6.5 7.0 7.0 7.0 6.8 6.9 7.4 7.2 7.4 7.3 7.3 7.1 7.1 7.0 7.1 7.1 7.6 6.9 7.2 7.0 7.1 6.7 7.6 7.2 7.4 7.4 6.8 6.9 7.0 7.0
7.3 7.4 7.7 7.1 6.1 5.8 6.7 7.1 7.1 7.4 7.5 7.1 7.6 7.4 7.1 7.6 7.2 6.8 7.0 7.3 7.0 6.7 6.5 6.9 6.9 6.7 7.1 7.4 7.5 7.5 7.4 7.0 7.4 7.3 7.2 7.4 7.5 7.5 7.4 7.4 7.4 7.1 7.0 7.1 7.1 7.1 7.3 7.3 7.3 7.1 7.0 6.9 6.5 6.3
8.4 7.1 6.5 5.9 5.9 5.9 6.3 7.1 7.6 7.8 7.4 7.3 7.2 7.4 6.8 6.6 6.7 7.0 7.3 7.0 6.9 7.1 7.3 7.4 7.5 7.7 7.8 7.5 7.5 7.6 7.3 7.7 7.6 7.4 6.9 7.0 7.4 7.5 7.1 7.2 7.4 7.2 7.1 7.0 7.2 6.9 7.0 7.3 6.8 7.0 6.9 6.7 6.5 6.6
7.8 6.9 6.5 6.7 6.8 6.9 7.0 8.3 7.0 7.2 6.5 6.6 7.1 6.5 6.5 6.6 7.1 7.9 6.7 7.1 7.0 7.4 8.0 7.9 7.8 7.3 7.1 7.2 7.3 6.9 6.8 7.2 7.7 7.4 7.3 7.4 7.5 7.3 7.6 7.4 7.5 7.1 7.0 7.0 7.3 7.3 7.3 6.7 6.6 6.7 6.6 6.5 6.1 5.9
7.4 7.1 7.0 7.0 7.1 6.5 7.2 6.8 7.3 7.0 6.9 6.6 6.5 6.5 6.5 6.6 7.4 6.7 6.5 6.7 7.3 8.1 8.0 7.9 8.2 7.9 8.0 7.8 7.9 7.8 7.2 7.9 7.8 7.9 7.6 7.2 7.5 7.0 7.2 7.5 7.3 6.9 6.9 7.0 7.4 7.4 7.3 7.4 6.8 6.8 6.8 6.8 6.8 6.9
6.9 6.7 6.9 6.5 7.2 6.6 6.5 6.5 6.5 6.5 6.5 6.5 6.5 6.5 6.5 7.0 6.5 6.5 6.5 6.7 7.2 7.5 7.8 8.1 8.1 8.0 7.7 7.8 8.1 8.1 8.0 7.6 7.2 7.1 7.7 7.2 7.5 7.2 7.1 7.3 7.2 6.9 6.9 6.8 6.9 6.9 7.0 7.0 7.1 7.1 7.3 7.1 7.1 7.0
6.5 6.9 6.7 6.5 6.6 6.5 6.5 6.5 6.5 6.5 6.5 6.5 6.5 6.7 6.9 6.5 6.5 6.5 6.5 7.1 7.3 7.5 7.3 7.6 7.8 7.9 7.9 8.2 8.0 8.1 8.2 8.0 7.1 7.5 7.0 7.3 7.4 7.1 7.0 7.0 7.1 6.6 6.4 6.1 6.5 7.0 7.1 7.1 7.3 7.3 7.1 7.0 7.1 7.2
6.5 6.5 7.1 7.7 7.5 7.2 6.7 6.8 6.9 6.5 6.5 6.5 6.5 6.5 6.5 6.5 6.5 6.5 7.4 7.7 7.7 7.9 8.3 8.5 8.4 8.2 8.1 8.3 8.6 8.7 8.2 7.9 7.6 7.6 7.6 7.3 7.2 7.0 6.8 6.9 7.0 6.3 6.4 6.5 6.6 7.0 7.3 7.1 7.2 7.4 7.3 7.2 7.1 7.1
7.0 7.2 6.5 7.0 7.0 7.3 6.5 6.5 6.5 6.5 6.5 7.0 6.7 6.5 6.5 6.5 6.5 7.3 7.7 8.1 8.5 8.8 8.8 8.8 8.9 8.7 8.4 8.5 8.5 8.3 8.1 8.3 8.4 7.9 7.3 7.1 7.2 7.2 6.9 7.1 6.5 5.7 6.2 6.4 6.5 7.1 7.3 7.0 7.0 7.1 7.5 7.4 6.9 6.9
7.0 7.6 7.4 6.5 6.7 6.8 6.7 6.5 6.5 7.1 7.6 7.2 6.5 6.5 6.6 7.5 7.6 7.9 8.2 8.4 8.7 8.6 8.3 8.3 8.3 8.3 8.4 8.6 8.7 8.3 8.1 7.8 8.0 7.5 7.5 7.5 7.4 6.9 7.2 7.4 7.5 7.3 7.1 7.0 6.3 6.5 6.7 6.9 7.0 7.2 7.3 7.2 7.0 7.2
7.0 7.9 6.9 6.7 6.5 6.5 6.9 7.6 7.3 7.8 8.1 8.0 7.9 7.8 7.6 7.8 7.9 8.5 8.4 8.4 8.2 7.9 8.2 8.2 8.3 8.3 8.0 8.0 8.0 8.1 7.7 6.7 6.1 7.0 7.6 7.6 7.2 6.8 7.4 7.5 7.5 7.4 7.2 7.2 7.3 6.7 6.1 6.6 6.4 6.9 7.3 7.4 7.5 7.4
7.9 7.6 7.0 6.9 6.6 7.2 7.5 8.0 8.1 8.2 8.0 7.8 7.9 7.5 7.3 7.7 8.1 8.6 8.7 8.6 8.5 8.4 8.3 8.2 8.2 8.3 8.1 8.0 7.8 8.0 7.9 8.0 6.4 5.8 5.7 5.7 6.3 7.6 7.5 7.1 7.1 6.9 7.2 7.3 7.2 7.3 7.3 7.2 7.6 7.4 7.1 6.9 6.9 6.5
7.5 7.0 6.8 6.5 6.6 7.7 8.0 7.5 7.5 7.4 7.5 7.3 7.2 7.6 7.5 7.4 7.1 7.9 8.5 8.6 8.4 8.2 8.1 8.3 8.2 8.2 8.5 8.1 7.2 8.2 7.9 8.1 7.0 5.6 4.8 4.3 4.4 4.7 5.3 6.7 6.7 7.0 7.1 7.2 7.3 7.3 7.3 7.3 7.4 6.3 5.2 4.7 4.3 3.8
7.4 7.3 7.3 7.0 6.8 6.8 7.4 7.3 7.1 6.9 7.1 6.9 7.1 7.4 7.5 7.3 6.8 7.9 9.1 9.1 8.5 8.5 8.4 8.6 8.7 8.8 8.6 7.6 7.5 8.2 8.3 8.3 7.7 5.6 4.4 3.7 2.8 2.6 4.2 5.4 6.1 6.1 6.1 6.3 6.2 6.5 6.2 5.2 4.4 4.0 3.8 3.6 3.4 3.1
Wind_Speed
26 27 27 26 26 24 22 23 22 21 18 17 16 14 10 8 7 4 3 5 3 2 1 2 2 4 3 3 5 1 2 5 4 6 5 8 9 12 14 19 17 13 7 8 7 8 13 20 21 12 12 16 14 14
25 26 26 26 24 24 22 22 19 18 17 16 14 12 9 7 7 4 3 1 2 2 1 6 5 6 9 7 5 4 2 2 2 4 4 3 4 2 10 8 11 4 3 6 5 8 14 7 10 16 16 18 12 11
23 23 24 23 22 22 21 20 19 18 17 15 13 12 11 7 4 4 3 4 2 1 4 7 8 11 11 10 8 5 7 9 9 5 4 4 7 7 9 9 13 15 12 8 12 14 18 17 7 13 15 19 11 8
21 21 21 21 20 19 18 16 16 16 14 12 11 11 9 7 3 2 1 2 1 1 2 2 3 5 5 12 14 12 12 7 3 2 4 4 5 7 10 14 13 11 14 14 17 15 15 13 1 5 10 16 7 10
17 18 18 17 17 16 15 14 13 13 11 10 9 8 7 6 4 1 1 2 4 2 3 4 10 12 10 10 11 11 11 11 7 6 5 9 9 9 12 13 14 13 16 11 12 18 12 15 13 13 12 13 14 12
15 16 16 15 15 14 13 13 13 12 11 9 7 7 8 8 8 3 3 1 1 2 3 3 5 6 7 8 10 12 10 10 9 8 6 8 17 11 8 13 20 18 16 16 16 17 17 17 15 17 16 14 15 15
14 14 14 14 14 14 13 13 13 13 13 12 11 12 9 8 0 1 3 2 7 4 1 3 3 2 3 6 7 7 10 7 9 8 9 12 12 11 13 16 24 20 21 19 18 17 16 16 11 13 15 18 17 18
13 13 12 12 12 12 12 12 12 12 12 12 11 8 4 2 5 2 3 2 5 3 3 3 3 4 4 6 5 7 6 4 4 7 8 8 9 9 8 17 18 19 17 13 14 12 14 15 16 16 16 16 18 16
11 11 10 10 10 9 9 9 8 8 7 6 5 3 3 2 1 3 1 1 2 2 3 2 3 3 3 4 3 1 3 4 4 5 8 4 5 6 11 14 17 17 16 17 14 13 14 14 16 13 12 15 15 16
10 10 9 9 9 9 9 9 8 7 6 4 3 2 0 1 9 7 1 1 0 2 3 3 5 5 4 3 2 2 3 3 3 6 3 3 5 14 16 15 15 12 12 11 6 11 9 10 10 13 13 14 13 15
9 9 8 8 8 8 8 9 8 8 4 3 2 0 4 5 2 2 2 3 4 3 4 3 5 7 2 4 3 3 2 3 3 2 3 3 4 6 6 7 8 6 8 10 10 12 14 13 13 10 12 14 14 13
7 8 8 8 8 8 9 9 9 5 2 2 1 1 0 2 3 3 3 3 4 2 2 3 5 4 2 2 3 4 3 3 5 5 3 3 2 2 6 3 4 7 9 11 11 11 13 12 11 9 9 9 12 11
6 9 9 9 9 9 9 9 8 5 11 2 1 1 2 3 5 4 5 3 2 3 4 5 4 3 3 4 4 3 3 5 4 3 3 2 5 3 3 2 6 7 9 11 11 11 11 9 9 8 9 9 8 9
5 5 7 11 11 11 11 10 8 5 3 2 2 3 4 4 5 4 4 5 4 3 6 3 1 3 3 4 4 4 4 3 3 4 5 2 2 5 4 5 7 8 8 9 9 9 9 8 8 8 6 7 7 8
3 3 5 7 11 11 12 9 10 4 2 2 3 4 6 7 6 5 5 6 6 6 5 3 2 3 4 3 4 4 3 4 5 3 3 3 3 3 5 6 8 7 6 6 6 7 8 7 8 8 5 6 7 8
2 3 5 11 11 11 11 9 5 1 2 3 4 4 6 6 5 3 6 6 6 4 2 2 3 4 5 4 6 7 4 4 2 3 4 6 8 7 7 7 8 7 6 6 6 6 8 7 8 9 6 4 7 6
4 3 11 16 14 13 13 3 2 4 4 4 4 6 8 8 7 6 7 6 3 2 2 3 4 3 2 4 3 4 5 6 8 5 5 8 7 7 7 7 7 6 7 7 7 6 6 6 7 7 5 6 5 5
6 3 14 13 9 6 5 4 2 4 7 7 6 7 7 7 7 7 6 5 2 2 2 2 3 3 3 4 4 3 2 3 4 6 5 3 5 4 5 8 7 6 6 5 6 7 6 5 6 5 4 1 1 4
11 8 4 12 9 4 4 6 4 4 8 5 7 7 7 5 5 6 4 0 1 2 1 3 5 4 3 2 4 7 7 6 6 5 6 2 0 2 4 4 6 4 5 6 6 5 5 4 3 4 4 3 2 2
16 17 14 11 8 4 4 3 4 4 4 4 5 7 6 5 4 2 2 2 2 2 3 4 4 2 2 3 3 5 5 5 5 6 4 3 2 3 3 3 4 4 4 4 3 3 5 3 4 4 4 4 2 3
5 5 12 12 5 5 3 3 4 3 3 3 4 6 4 4 4 3 3 5 5 3 4 1 2 2 3 3 3 4 4 6 5 5 5 6 6 6 5 3 3 2 3 3 4 4 4 4 4 4 4 4 5 5
4 6 1 3 4 5 4 5 4 3 4 4 5 4 4 3 4 4 4 5 3 2 2 3 4 5 5 5 5 5 4 6 6 5 4 5 5 5 4 2 3 3 2 3 3 3 3 4 5 4 3 4 4 3
2 4 3 3 4 6 4 6 7 6 5 4 4 4 4 3 3 5 3 3 2 2 3 4 3 3 4 4 5 3 2 5 5 6 5 4 5 4 3 2 2 3 3 3 3 3 3 3 3 3 2 2 3 4
5 3 3 3 5 4 3 4 4 4 5 7 4 4 4 5 6 4 3 2 4 6 5 4 4 4 5 7 5 6 6 5 5 7 6 4 5 3 2 2 2 1 2 2 1 1 2 2 2 2 2 3 3 3
5 6 4 7 5 5 6 4 7 8 6 8 6 4 3 4 6 6 4 4 6 7 4 5 5 5 5 4 5 5 7 7 7 8 7 3 4 5 4 3 2 1 0 3 3 1 0 0 1 1 1 3 4 4
5 5 5 3 3 4 5 3 6 8 8 6 5 2 4 3 3 2 3 6 8 7 5 5 6 5 6 7 7 7 8 7 7 7 4 6 5 5 6 6 5 1 4 2 3 5 4 1 1 2 1 4 4 4
5 7 5 6 6 5 4 0 1 3 5 4 3 3 1 2 2 4 4 7 5 5 5 5 5 6 7 7 7 7 8 7 7 6 6 5 4 3 3 4 4 3 4 3 4 4 5 4 2 1 1 2 2 1
3 5 8 10 7 5 5 4 2 4 4 5 6 3 2 4 4 3 4 5 6 6 5 6 7 7 8 8 7 7 7 6 7 7 6 6 5 3 1 1 1 1 3 2 4 4 4 4 4 1 0 1 4 2
3 5 7 4 5 3 5 5 5 3 5 5 6 5 3 3 3 4 5 5 5 5 5 5 6 6 6 7 7 7 7 7 7 9 9 7 6 5 6 4 3 3 2 1 1 1 3 4 4 3 3 2 4 2
5 7 5 4 3 2 3 4 3 5 4 4 4 4 2 3 3 4 5 5 5 5 6 6 6 7 7 7 8 9 7 8 8 7 6 6 7 7 7 7 6 3 2 3 4 3 3 2 2 2 2 2 3 3
5 4 5 4 3 5 5 6 5 6 5 3 2 3 1 4 4 5 6 6 6 6 7 7 7 7 8 8 8 8 7 6 8 9 9 7 7 7 7 7 6 6 4 4 4 4 4 4 3 2 5 5 7 8
6 4 5 7 9 8 7 6 6 7 7 5 1 1 3 4 3 2 4 5 6 7 8 8 8 8 9 8 9 7 8 5 5 6 10 7 8 8 8 7 6 6 6 5 4 4 4 6 3 8 9 11 10 10
9 9 7 3 4 6 7 8 4 5 4 1 3 4 4 4 4 4 4 5 6 7 7 8 8 8 11 12 11 6 6 6 4 2 5 7 8 9 7 6 6 5 5 5 5 5 7 10 10 12 12 11 11 11
Wind_Direction
86 88 88 92 94 91 91 94 97 101 107 112 114 114 104 84 61 38 88 33 13 219 202 175 204 212 218 189 215 136 245 219 211 236 256 261 257 266 280 276 282 269 267 281 302 277 251 5 331 306 318 320 336 333
83 85 88 90 93 95 96 98 99 98 103 111 119 123 123 117 108 50 96 81 38 21 321 348 310 296 258 242 210 166 292 355 245 254 251 312 277 304 281 281 279 285 259 295 287 291 294 240 246 298 304 301 298 299
84 85 87 90 91 92 93 95 97 99 102 109 119 127 143 128 118 34 98 115 89 314 293 243 239 232 233 254 264 252 238 235 249 252 286 266 264 299 276 272 290 293 297 248 304 302 310 310 350 283 327 320 278 282
80 84 86 88 89 90 93 95 98 99 100 109 112 112 119 135 143 309 94 141 74 8 283 290 132 229 225 197 216 226 252 248 245 245 253 270 279 293 280 290 285 280 297 298 292 299 305 316 17 22 322 309 347 315
89 89 89 87 88 91 95 100 102 106 113 122 124 135 143 145 132 360 63 4 29 352 334 312 300 274 238 220 233 240 222 243 252 248 248 265 274 277 274 274 268 271 272 275 287 286 300 302 313 320 307 305 311 320
91 95 94 95 98 97 97 98 99 101 100 99 109 129 135 139 146 88 32 198 203 221 299 291 324 257 202 211 239 244 241 229 236 248 247 245 252 252 268 270 270 282 291 302 301 305 298 286 283 299 291 288 311 314
103 107 104 103 101 97 96 97 96 92 84 79 82 76 108 131 188 34 23 60 147 212 258 276 270 212 209 244 227 228 232 237 240 247 249 257 262 269 266 269 275 280 280 283 287 318 318 323 308 301 290 285 276 272
114 116 113 111 109 105 102 101 99 92 85 83 86 85 80 313 281 194 114 150 310 282 258 273 278 265 232 233 252 246 241 246 253 240 252 252 261 255 254 263 275 274 295 309 315 325 323 324 315 307 313 317 312 304
117 116 112 115 121 120 119 115 112 110 112 119 131 156 214 257 310 84 70 219 245 307 303 236 272 324 260 269 287 228 229 241 233 233 237 248 238 235 265 299 315 314 307 303 316 320 324 324 316 311 312 302 291 290
129 130 130 134 142 145 149 151 148 146 152 171 214 152 177 131 125 150 138 101 109 236 233 264 284 265 321 303 277 254 200 236 247 225 217 219 252 248 255 259 262 272 301 311 319 308 308 288 290 295 296 297 295 301
148 150 150 148 152 157 159 162 162 166 201 224 213 90 97 138 229 221 208 222 177 212 203 237 253 273 262 247 291 262 262 249 256 195 218 230 246 247 203 239 256 264 280 277 266 267 283 300 312 306 297 293 302 314
169 173 176 172 167 171 174 178 187 212 322 57 306 276 105 242 231 232 216 219 215 246 195 216 224 221 214 214 257 258 249 258 254 146 240 255 68 343 116 106 252 260 264 264 274 318 325 311 300 300 308 300 296 302
202 199 196 192 187 186 188 195 209 295 291 264 341 114 237 190 236 233 204 200 215 185 231 220 204 215 158 208 248 267 249 240 309 235 242 276 59 118 166 224 346 343 330 348 334 324 314 314 315 314 302 291 285 285
216 221 216 206 195 193 194 201 204 261 285 242 216 233 231 186 244 234 333 355 350 277 307 309 234 198 190 187 233 252 236 262 254 242 244 56 24 39 19 5 344 344 355 334 318 319 316 312 313 307 292 294 293 280
146 199 223 210 195 195 191 194 196 229 279 261 228 242 224 243 284 304 312 301 307 316 314 292 244 230 194 228 222 246 244 248 237 265 21 85 89 22 17 353 340 336 337 320 319 316 318 324 312 309 312 309 302 292
188 261 227 181 180 178 178 175 183 349 289 249 241 252 258 279 264 271 284 287 309 325 334 258 252 245 209 213 207 213 239 236 339 6 16 31 33 18 349 340 329 327 324 319 320 320 316 317 319 314 317 335 329 327
248 267 153 174 178 181 190 150 130 213 232 222 233 234 260 282 279 279 280 289 317 356 283 265 243 258 266 237 230 226 278 356 351 9 33 46 9 350 335 327 339 336 328 325 325 321 310 304 301 301 349 2 355 18
251 251 163 169 161 191 210 187 237 229 233 236 246 237 221 245 266 272 277 295 211 203 233 268 316 246 234 261 294 30 340 325 340 349 10 1 338 345 336 329 330 322 320 321 319 311 309 336 327 353 339 339 114 64
265 288 191 187 166 161 189 189 224 250 218 240 232 245 252 258 245 254 271 192 222 149 229 244 254 250 264 338 8 350 348 344 338 327 311 113 63 320 325 303 305 347 326 314 313 326 317 304 327 331 333 332 60 96
274 275 280 265 209 193 230 205 196 248 244 235 234 240 253 250 257 147 156 143 163 186 208 225 243 28 16 357 350 321 324 323 322 320 333 2 355 319 341 328 337 317 323 338 331 341 341 9 23 2 356 358 67 89
274 280 247 209 197 210 253 216 194 226 246 245 237 247 262 260 239 209 211 185 193 213 232 298 67 33 18 339 350 332 337 360 337 328 326 322 334 308 294 290 325 345 352 358 354 4 10 15 8 10 27 50 55 59
231 179 229 271 217 207 236 219 240 189 208 222 241 224 245 235 234 223 155 198 217 175 63 14 359 346 342 358 347 326 320 319 310 299 284 290 301 312 343 9 339 337 45 29 9 6 15 23 3 32 57 64 64 86
186 204 191 218 255 217 237 194 200 193 213 211 203 221 219 209 202 149 221 208 101 102 90 52 358 314 290 287 287 309 296 313 327 319 306 295 291 291 303 341 2 3 20 56 31 25 28 20 33 40 65 106 110 109
163 232 213 230 225 249 205 210 210 220 207 211 216 228 231 194 155 202 233 103 117 113 78 41 38 31 23 16 13 18 353 350 333 326 336 314 319 332 352 345 4 42 3 332 2 54 47 20 5 49 56 73 81 95
237 202 213 231 236 230 224 203 204 211 226 207 212 214 228 185 179 203 187 120 105 84 68 40 30 18 15 16 13 351 10 3 342 323 319 328 330 315 295 243 212 186 302 320 356 322 226 43 35 114 87 81 96 105
258 187 216 287 333 311 346 281 214 217 221 215 212 182 176 187 203 182 72 79 80 69 42 24 14 357 352 0 344 344 341 339 321 308 349 2 348 342 343 347 341 152 57 27 355 335 333 201 125 355 150 136 124 132
16 360 348 355 313 299 279 272 75 346 343 360 19 10 241 208 178 85 93 28 48 24 2 356 340 338 332 329 328 324 316 305 306 308 307 305 302 315 335 342 346 24 352 5 328 324 314 326 190 152 60 89 109 27
350 9 346 332 332 320 301 298 306 15 37 360 327 296 338 31 60 58 46 15 8 350 346 5 359 1 342 324 316 308 300 295 301 296 263 256 246 230 248 12 58 353 321 9 345 345 359 4 14 81 136 255 120 56
329 357 334 322 323 321 10 4 27 57 1 349 335 2 44 64 31 28 28 6 2 8 14 360 359 345 340 346 331 332 331 322 320 335 341 341 22 43 8 342 325 302 307 282 134 36 46 32 23 20 29 98 108 136
322 340 307 301 291 285 54 24 356 337 324 325 310 297 125 104 72 49 32 21 13 10 10 5 357 356 360 348 347 346 13 35 24 5 343 341 337 326 322 323 301 261 266 299 299 185 172 206 186 180 185 193 191 164
303 306 289 307 308 4 350 340 324 309 271 256 306 276 30 121 121 69 42 24 15 16 17 3 354 355 356 342 339 339 339 8 9 356 344 325 323 331 345 331 330 333 331 319 307 303 311 221 247 160 107 78 70 88
296 293 328 302 301 308 321 349 328 293 278 273 231 73 141 194 119 86 35 22 19 12 4 352 344 343 335 321 313 314 334 330 2 355 345 337 335 333 321 326 337 338 339 327 334 330 301 269 181 111 96 89 81 78
285 281 278 333 333 336 350 346 308 298 299 284 79 48 56 27 64 45 43 34 23 360 350 335 333 328 316 310 302 318 340 342 8 82 30 10 356 347 333 335 332 342 351 18 30 39 67 80 89 94 94 92 89 88